Home > Weather > Phnom Penh > Past weeks

Flag for Cambodia Past Weather in Phnom Penh, Cambodia — Yesterday and Last 2 Weeks

Now
88 °F

Scattered clouds.


Feels Like: 98 °F
Forecast: 76 / 95 °F
Wind: 2 mph from Northwest

Location: Phnom-Penh / Pochentong

Current Time: Jul 24, 2016 at 12:03:29 PM

Latest Report: Jul 24, 2016 at 11:30 AM


Visibility: N/A

Pressure: 29.77 "Hg

Humidity: 66%

Dew Point: 75 °F

Location of Phnom PenhLocation

Past Weather in Phnom Penh — Graph

°F

Phnom Penh Temperature Yesterday

Maximum temperature yesterday: 93 °F (at 12:30 PM)
Minimum temperature yesterday: 79 °F (at 2:00 PM)
Average temperature yesterday: 85 °F

High & Low Weather Summary for the Past Weeks

 TemperatureHumidityPressure
High95 °F (Jul 13, 2:00 PM)100% (Jul 13, 4:00 PM)29.95 "Hg (Jul 13, 4:00 PM)
Low75 °F (Jul 18, 3:00 PM)50% (Jul 15, 2:00 PM)29.62 "Hg (Jul 10, 4:00 PM)
Average85 °F76%29.73 "Hg
* Reported Jul 9 10:00 AM — Jul 24 10:30 AM, Phnom Penh, Weather by CustomWeather, © 2016

Note: Actual official high and low records may vary slightly from our data, if they occured in-between our weather recording intervals... More about our weather records

Advertising

Phnom Penh Weather History for the Previous 24 Hours

Scroll right to see more
 ConditionsComfort  
Time TempWeatherWind HumidityBarometerVisibility
10:30 AM
Sun, Jul 24
90 °FScattered clouds.2 mph67%29.80 "HgN/A
10:00 AM90 °FScattered clouds.1 mph67%29.80 "HgN/A
9:30 AM88 °FScattered clouds.1 mph70%29.80 "HgN/A
9:00 AM84 °FScattered clouds.3 mph79%29.80 "HgN/A
8:30 AM84 °FScattered clouds.2 mph84%29.80 "HgN/A
8:00 AM82 °FScattered clouds.1 mph84%29.80 "HgN/A
7:30 AM82 °FScattered clouds.1 mph84%29.80 "Hg6 mi
7:00 AM82 °FScattered clouds.No wind84%29.80 "Hg6 mi
6:00 AM79 °FScattered clouds.No wind89%29.77 "Hg6 mi
2:30 AM79 °FPassing clouds.1 mph84%29.77 "Hg6 mi
2:00 AM79 °FPassing clouds.No wind79%29.77 "Hg6 mi
1:30 AM79 °FPassing clouds.2 mph79%29.80 "Hg6 mi
1:00 AM81 °FPassing clouds.1 mph74%29.80 "Hg6 mi
12:30 AM81 °FLight rain. Passing clouds.2 mph84%29.80 "Hg6 mi
12:00 AM81 °FPassing clouds.6 mph84%29.80 "Hg6 mi
11:30 PM
Sat, Jul 23
81 °FPassing clouds.6 mph89%29.83 "Hg6 mi
10:30 PM82 °FPassing clouds.3 mph89%29.83 "Hg6 mi
10:00 PM82 °FPassing clouds.1 mph89%29.83 "Hg6 mi
9:30 PM82 °FPassing clouds.1 mph84%29.80 "Hg6 mi
9:00 PM84 °FPassing clouds.2 mph79%29.80 "Hg6 mi
8:30 PM84 °FPassing clouds.2 mph79%29.77 "Hg6 mi
6:30 PM86 °FPassing clouds.1 mph75%29.74 "Hg6 mi
6:00 PM86 °FScattered clouds.No wind70%29.74 "Hg6 mi
5:30 PM84 °FScattered clouds.1 mph79%29.71 "Hg6 mi
5:00 PM84 °FScattered clouds.1 mph79%29.71 "HgN/A
4:30 PM84 °FScattered clouds.1 mph79%29.71 "HgN/A
4:00 PM84 °FScattered clouds.1 mph74%29.71 "HgN/A
3:30 PM84 °FScattered clouds.3 mph74%29.71 "HgN/A
2:30 PM81 °FLight rain. Scattered clouds.7 mph84%29.74 "Hg6 mi
2:00 PM79 °FThunderstorms. Scattered clouds.17 mph89%29.74 "Hg5 mi
1:30 PM90 °FRain. Scattered clouds.5 mph63%29.74 "HgN/A
1:00 PM91 °FScattered clouds.6 mph59%29.77 "HgN/A
12:30 PM93 °FScattered clouds.6 mph56%29.77 "HgN/A
12:00 PM91 °FScattered clouds.2 mph59%29.80 "HgN/A
Weather by CustomWeather, © 2016

See weather overviewHow to use our weather pages